Flag for Germany Weather past 2 weeks in Witzenhausen, Hesse, Germany

Now
50 °F

Overcast.


Feels Like: 50 °F
Forecast: 41 / 70 °F
Wind: 2 mph from West

Location: Fritzlar

Current Time: Aug 21, 2014 at 3:35:14 AM

Latest Report: Aug 21, 2014 at 3:00 AM


Visibility: 13 mi

Pressure: 30.03 "Hg

Humidity: 90%

Dew point: 47 °F

Location of WitzenhausenLocation

Historic Weather in Witzenhausen — Graph

°F

Witzenhausen temperature yesterday

Maximum temperature yesterday: 65 °F (at 3:00 PM)
Minimum temperature yesterday: 43 °F (at 7:00 AM)
Average temperature yesterday: 53 °F

Past Weeks' High & Low Weather Summary

 TemperatureHumidityPressure
High79 °F (Aug 8, 5:00 PM)98% (Aug 6, 6:00 AM)30.13 "Hg (Aug 6, 6:00 AM)
Low43 °F (Aug 20, 7:00 AM)37% (Aug 18, 5:00 PM)29.64 "Hg (Aug 13, 4:00 PM)
Average61 °F76%29.89 "Hg
* Reported Aug 6 2:00 AM — Aug 21 2:00 AM, Witzenhausen, Weather by CustomWeather, © 2014

Note: Actual official high and low records may vary slightly from our data, if they occured in-between our weather recording intervals... More about our weather records

Advertising

Witzenhausen weather history for previous 24 hours

 ConditionsComfort  
Time TempWeatherWind HumidityBarometerVisibility
2:00 AM
Aug 21
50 °FSprinkles. Overcast.2 mph89%30.03 "Hg9 mi
1:00 AM52 °FOvercast.N/A78%30.04 "Hg19 mi
12:00 AM51 °FOvercast.5 mph83%30.03 "Hg19 mi
11:00 PM
Aug 20
51 °FPassing clouds.2 mph82%30.02 "Hg19 mi
10:00 PM54 °FOvercast.N/A72%30.01 "Hg19 mi
9:00 PM55 °FOvercast.1 mph68%29.99 "Hg22 mi
8:00 PM60 °FOvercast.3 mph55%29.98 "Hg25 mi
7:00 PM62 °FOvercast.5 mph50%29.98 "Hg28 mi
6:00 PM62 °FOvercast.3 mph50%29.99 "Hg31 mi
5:00 PM64 °FOvercast.3 mph42%29.98 "Hg31 mi
4:00 PM62 °FPartly sunny.2 mph50%30.00 "Hg31 mi
3:00 PM65 °FPartly sunny.6 mph44%29.99 "Hg31 mi
2:00 PM61 °FScattered clouds.5 mph53%30.01 "Hg31 mi
1:00 PM60 °FScattered clouds.3 mph57%30.01 "Hg28 mi
12:00 PM59 °FScattered clouds.5 mph56%30.02 "Hg22 mi
11:00 AM57 °FScattered clouds.3 mph63%30.03 "Hg19 mi
10:00 AM55 °FScattered clouds.3 mph74%30.03 "Hg17 mi
9:00 AM51 °FPassing clouds.3 mph81%30.03 "Hg12 mi
8:00 AM47 °FPassing clouds.2 mph89%30.03 "Hg10 mi
7:00 AM43 °FPassing clouds.2 mph94%30.03 "Hg8 mi
6:00 AM43 °FPassing clouds.N/A93%30.01 "Hg9 mi
5:00 AM44 °FClear.5 mph93%30.00 "Hg12 mi
4:00 AM46 °FClear.5 mph91%29.99 "Hg12 mi
3:00 AM43 °FPassing clouds.N/A93%29.99 "Hg12 mi
Weather by CustomWeather, © 2014

See weather overviewHow to use our weather pages